Location: Bear Valley
(38.4650°N, 120.0390°W)
Time: 23:36:32
(UTC-07:00)

Envisat - Visible Passes

Search period start: 22 June 2018 00:00
Search period end: 02 July 2018 00:00
Orbit: 764 x 766 km, 98.2° (Epoch: 22 June)

Date Brightness Start Highest point End Pass type
(mag) Time Alt. Az. Time Alt. Az. Time Alt. Az.
23 Jun 5.5 21:30:39 10° SW 21:33:55 17° W 21:37:13 10° NW visible
24 Jun 4.4 20:52:14 10° SSW 20:56:56 39° W 21:01:41 10° NNW visible
26 Jun 5.3 21:18:48 10° SW 21:22:40 22° W 21:26:34 10° NW visible
28 Jun 5.8 21:46:40 10° WSW 21:48:30 12° W 21:50:20 10° WNW visible
29 Jun 5.0 21:07:07 10° SSW 21:11:26 28° W 21:15:45 10° NW visible
01 Jul 5.6 21:34:15 10° SW 21:37:13 15° W 21:40:11 10° NW visible
